Location: Bacharowice
(49.9333°N, 19.5833°E)
Time: 12:16:36
(UTC+00:00)

USA 305 - Pass Details

Date: 19 September 2021
Orbit: 547 x 588 km, 54.0° (Epoch: 03 October)

Event Time Altitude Azimuth Distance (km) Brightness Sun altitude
Rises 20:26:25 0° 292° (WNW) 2,760 7.2 -32.0°
Reaches altitude 10° 20:28:40 10° 295° (WNW) 1,869 6.2 -32.2°
Enters shadow 20:30:12 21° 299° (WNW) 1,290 5.2 -32.3°
